{"data":{"norad_id":67987,"epoch":"2026-05-24T22:58:02.652096Z","epoch_age_seconds":72559,"freshness":"FRESH","line1":"1 67987U 26039B   26144.95697514  .00009024  00000+0  33704-3 0  9994","line2":"2 67987  43.0018 338.5496 0001144 266.1343  93.9378 15.27581807 13364","mean_motion":15.27581807,"eccentricity":0.0001144,"inclination_deg":43.0018,"raan_deg":338.5496,"arg_perigee_deg":266.1343,"mean_anomaly_deg":93.9378,"bstar":0.00033704,"rev_number":1336,"period_min":94.266637204066,"perigee_km":482.25876616653,"apogee_km":483.82860430731,"semimajor_km":6861.1806852369,"source":"CELESTRAK","updated_at":"2026-05-25T13:38:21.778781Z"}}